"Pseudo-MPEC" for P11CrpI

Created 2022 Dec 22 19:22:17 UT using Find_Orb

Click here for an explanation of pseudo-MPECs

 
 Astrometry: 
     P11CrpI* C2022 12 02^luc'qWbe+3#_]B8d;]D:Y#!4H/H,VwIAstrometry]nA:W,yssVF51
     P11CrpI  C2022 12 02X0VTHuo`sc?ve-DNredacted;/**,-B!O625j_cFqsWLBRu(K_!!F51
     P11CrpI  C2022 12 02$.Rq^7#l3XuIj0m)s:click!mq'i#Khere(aforL)explanationF51

Station data:
(F51) Pan-STARRS 1, Haleakala  (N20.707234 W156.255910)  US/Hawaii.
   Observers J. Bulger, T. Lowe, A. Schultz, M. Willman. Measurers K.
   Chambers, S. Chastel, T. de Boer, L. Denneau, J. Fairlamb, H. Flewelling,
   M. Huber, C.-C. Lin, E. Magnier, Y. Ramanjooloo, R. Wainscoat, R. Weryk.
   1.8-m Ritchey-Chrétien + CCD.

Orbital elements:  P11CrpI
   Perihelion 2022 Jan 15.25013 +/- 144 TT =  6:00:11 (JD 2459594.75013)
Epoch 2022 Dec  3.0 TT = JDT 2459916.5                           AutoNEOCP
M  79.82664801 +/- 100              (J2000 ecliptic)
n   0.24810157 +/- 0.471            Peri.   79.49986 +/- 80
a   2.50832057 +/- 3.17             Node   305.81378 +/- 22
e   0.0989038 +/- 0.246             Incl.   34.38640 +/- 43
P   3.97                   H 17.17  G  0.15   U 12.2  SR
q 2.26023790 +/- 1.02    Q 2.75640323 +/- 40
From 3 observations 2022 Dec. 2 (42.0 min); mean residual 0".02
Residuals in arcseconds: 
221202 F51  .00   .02-    221202 F51  .01+  .04+    221202 F51  .01-  .02-    

Ephemerides (geocentric):
Date (UTC) HH   RA             Dec           delta  r     elong  mag " sig PA
---- --------  ------------   ------------  ------ ------ -----  --- --------
2022 12 22 19  09 31 37.130   +18 26 00.43  1.7506 2.5101 131.2 21.3  68d 169
2022 12 22 20  09 31 35.400   +18 25 40.46  1.7502 2.5101 131.2 21.3  68d 169
2022 12 22 21  09 31 33.666   +18 25 20.49  1.7498 2.5101 131.3 21.3  68d 169
2022 12 22 22  09 31 31.929   +18 25 00.52  1.7494 2.5102 131.3 21.3  68d 169
2022 12 22 23  09 31 30.188   +18 24 40.55  1.7490 2.5102 131.4 21.3  68d 169
2022 12 23 00  09 31 28.444   +18 24 20.59  1.7486 2.5103 131.4 21.3  68d 169
2022 12 23 01  09 31 26.695   +18 24 00.63  1.7482 2.5103 131.5 21.3  68d 169
2022 12 23 02  09 31 24.943   +18 23 40.67  1.7478 2.5104 131.5 21.3  68d 169
2022 12 23 03  09 31 23.188   +18 23 20.71  1.7474 2.5104 131.6 21.3  68d 169
2022 12 23 04  09 31 21.428   +18 23 00.75  1.7470 2.5105 131.6 21.3  68d 169
2022 12 23 05  09 31 19.665   +18 22 40.80  1.7466 2.5105 131.7 21.3  68d 169
2022 12 23 06  09 31 17.899   +18 22 20.84  1.7463 2.5106 131.7 21.3  68d 169
2022 12 23 07  09 31 16.128   +18 22 00.89  1.7459 2.5106 131.8 21.3  68d 169
2022 12 23 08  09 31 14.354   +18 21 40.94  1.7455 2.5106 131.8 21.3  68d 169
2022 12 23 09  09 31 12.577   +18 21 20.99  1.7451 2.5107 131.8 21.3  68d 169
2022 12 23 10  09 31 10.795   +18 21 01.05  1.7447 2.5107 131.9 21.3  68d 169
2022 12 23 11  09 31 09.010   +18 20 41.10  1.7443 2.5108 131.9 21.3  68d 169
2022 12 23 12  09 31 07.221   +18 20 21.16  1.7439 2.5108 132.0 21.3  68d 169
2022 12 23 13  09 31 05.429   +18 20 01.22  1.7435 2.5109 132.0 21.3  68d 169
2022 12 23 14  09 31 03.633   +18 19 41.28  1.7431 2.5109 132.1 21.3  68d 169
2022 12 23 15  09 31 01.833   +18 19 21.34  1.7427 2.5110 132.1 21.3  68d 169
2022 12 23 16  09 31 00.029   +18 19 01.40  1.7423 2.5110 132.2 21.3  68d 169
2022 12 23 17  09 30 58.222   +18 18 41.47  1.7419 2.5110 132.2 21.3  68d 169
2022 12 23 18  09 30 56.411   +18 18 21.54  1.7415 2.5111 132.3 21.3  68d 169
2022 12 23 19  09 30 54.597   +18 18 01.60  1.7411 2.5111 132.3 21.3  68d 169
2022 12 23 20  09 30 52.778   +18 17 41.68  1.7408 2.5112 132.4 21.3  68d 169
2022 12 23 21  09 30 50.956   +18 17 21.75  1.7404 2.5112 132.4 21.3  68d 169
2022 12 23 22  09 30 49.131   +18 17 01.82  1.7400 2.5113 132.5 21.3  68d 169
2022 12 23 23  09 30 47.302   +18 16 41.90  1.7396 2.5113 132.5 21.3  68d 169
2022 12 24 00  09 30 45.469   +18 16 21.97  1.7392 2.5114 132.6 21.3  68d 169
2022 12 24 01  09 30 43.632   +18 16 02.05  1.7388 2.5114 132.6 21.3  68d 169
2022 12 24 02  09 30 41.792   +18 15 42.13  1.7384 2.5114 132.7 21.3  68d 169
2022 12 24 03  09 30 39.948   +18 15 22.21  1.7380 2.5115 132.7 21.3  68d 169
2022 12 24 04  09 30 38.100   +18 15 02.30  1.7376 2.5115 132.8 21.3  68d 169
2022 12 24 05  09 30 36.249   +18 14 42.38  1.7373 2.5116 132.8 21.3  68d 169
2022 12 24 06  09 30 34.394   +18 14 22.47  1.7369 2.5116 132.9 21.3  68d 169
2022 12 24 07  09 30 32.536   +18 14 02.56  1.7365 2.5117 132.9 21.3  68d 169
2022 12 24 08  09 30 30.673   +18 13 42.65  1.7361 2.5117 132.9 21.3  68d 169
2022 12 24 09  09 30 28.807   +18 13 22.74  1.7357 2.5118 133.0 21.3  68d 169
2022 12 24 10  09 30 26.938   +18 13 02.83  1.7353 2.5118 133.0 21.3  68d 169
2022 12 24 11  09 30 25.065   +18 12 42.93  1.7349 2.5118 133.1 21.3  68d 169
2022 12 24 12  09 30 23.188   +18 12 23.03  1.7346 2.5119 133.1 21.3  68d 169
2022 12 24 13  09 30 21.307   +18 12 03.12  1.7342 2.5119 133.2 21.3  68d 169
2022 12 24 14  09 30 19.423   +18 11 43.22  1.7338 2.5120 133.2 21.3  68d 169
2022 12 24 15  09 30 17.535   +18 11 23.32  1.7334 2.5120 133.3 21.3  68d 169
2022 12 24 16  09 30 15.643   +18 11 03.43  1.7330 2.5121 133.3 21.3  68d 169
2022 12 24 17  09 30 13.748   +18 10 43.53  1.7326 2.5121 133.4 21.3  68d 169
2022 12 24 18  09 30 11.849   +18 10 23.64  1.7323 2.5122 133.4 21.3  68d 169